Location: Newark
(25.4297°S, 49.2719°W)
Time: 00:58:45
(UTC+00:00)

Tiros 1 - All Passes

Search period start: 16 November 2019 00:00
Search period end: 26 November 2019 00:00
Orbit: 630 x 664 km, 48.4° (Epoch: 14 November)

Date Brightness Start Highest point End Pass type
(mag) Time Alt. Az. Time Alt. Az. Time Alt. Az.
16 Nov - 04:58:44 10° NW 05:03:32 72° NE 05:08:22 10° SE visible
16 Nov - 06:42:46 10° WSW 06:46:05 18° SSW 06:49:26 10° S visible
16 Nov - 11:56:31 10° S 11:58:56 14° SSE 12:01:20 10° ESE daylight
16 Nov - 13:36:57 10° SW 13:41:43 79° SE 13:46:23 10° NE daylight
16 Nov - 15:22:18 10° WNW 15:23:24 11° NW 15:24:30 10° NW daylight
17 Nov - 03:43:54 10° N 03:47:38 23° NE 03:51:25 10° ESE visible
17 Nov - 05:25:02 10° WNW 05:29:38 43° SW 05:34:16 10° SSE visible
17 Nov - 12:21:20 10° SSW 12:25:28 28° SE 12:29:32 10° E daylight
17 Nov - 14:03:20 10° WSW 14:07:40 36° NW 14:11:54 10° NNE daylight
18 Nov - 04:08:45 10° NW 04:13:29 64° NE 04:18:18 10° SE visible
18 Nov - 05:52:29 10° W 05:56:00 20° SSW 05:59:32 10° SSE visible
18 Nov - 11:06:42 10° S 11:08:50 13° SSE 11:10:57 10° SE daylight
18 Nov - 12:46:55 10° SW 12:51:41 72° SE 12:56:21 10° NE daylight
18 Nov - 14:31:30 10° WNW 14:33:24 12° NW 14:35:18 10° NNW daylight
19 Nov - 02:54:07 10° N 02:57:38 20° NE 03:01:10 10° E night (unlit)
19 Nov - 04:34:55 10° WNW 04:39:34 48° SW 04:44:16 10° SSE visible
19 Nov - 11:31:22 10° SSW 11:35:24 26° SE 11:39:22 10° E daylight
19 Nov - 13:13:12 10° WSW 13:17:39 40° NW 13:22:00 10° NNE daylight
20 Nov - 03:18:46 10° NNW 03:23:27 57° NE 03:28:14 10° SE visible
20 Nov - 05:02:14 10° W 05:05:54 21° SW 05:09:36 10° SSE visible
20 Nov - 10:16:55 10° S 10:18:43 12° SSE 10:20:32 10° SE daylight
20 Nov - 11:56:53 10° SW 12:01:39 64° SE 12:06:19 10° NE daylight
20 Nov - 13:40:59 10° W 13:43:25 14° NW 13:45:49 10° NNW daylight
21 Nov - 02:04:22 10° N 02:07:38 18° NE 02:10:54 10° E night (unlit)
21 Nov - 03:44:48 10° WNW 03:49:30 53° SW 03:54:16 10° SE visible
21 Nov - 05:31:34 10° SW 05:32:34 11° SSW 05:33:33 10° SSW visible
21 Nov - 10:41:24 10° SSW 10:45:19 24° SE 10:49:11 10° E daylight
21 Nov - 12:23:05 10° WSW 12:27:38 45° NW 12:32:06 10° NNE daylight
22 Nov - 02:28:48 10° NNW 02:33:26 51° NE 02:38:08 10° ESE night (unlit)
22 Nov - 04:12:00 10° W 04:15:49 23° SW 04:19:40 10° SSE visible
22 Nov - 09:27:12 10° S 09:28:37 11° SSE 09:30:02 10° SE daylight
22 Nov - 11:06:52 10° SW 11:11:36 58° SE 11:16:14 10° ENE daylight
22 Nov - 12:50:35 10° W 12:53:25 16° NW 12:56:14 10° NNW daylight
23 Nov - 01:14:41 10° NNE 01:17:37 16° NE 01:20:34 10° E night (unlit)
23 Nov - 02:54:43 10° WNW 02:59:27 58° SW 03:04:15 10° SE visible
23 Nov - 04:40:54 10° SW 04:42:26 11° SSW 04:43:59 10° S visible
23 Nov - 09:51:27 10° SSW 09:55:14 22° SE 09:58:59 10° E daylight
23 Nov - 11:32:59 10° WSW 11:37:37 50° NW 11:42:10 10° NNE daylight
24 Nov - 01:38:51 10° NNW 01:43:25 45° NE 01:48:02 10° ESE night (unlit)
24 Nov - 03:21:47 10° W 03:25:44 25° SW 03:29:43 10° SSE visible
24 Nov - 08:37:39 10° SSE 08:38:29 10° SSE 08:39:20 10° SE daylight
24 Nov - 10:16:51 10° SW 10:21:33 52° SE 10:26:10 10° ENE daylight
24 Nov - 12:00:15 10° W 12:03:25 18° NW 12:06:33 10° N daylight
25 Nov - 00:25:03 10° NNE 00:27:37 14° NE 00:30:11 10° E night (unlit)
25 Nov - 02:04:39 10° NW 02:09:24 65° SW 02:14:13 10° SE night (unlit)
25 Nov - 03:50:23 10° SW 03:52:19 12° SSW 03:54:16 10° S visible
25 Nov - 09:01:30 10° SSW 09:05:09 21° SE 09:08:46 10° E daylight
25 Nov - 10:42:53 10° SW 10:47:36 57° NW 10:52:13 10° NNE daylight
